| time (UTC) | temp F | wind direction | speed knots | gust knots | rain 1hr in | rain 24hr in | rain mn in | humidity % | barometer mb |
| 20260904034740 | 80 | 143 | 2.6 | 4.3 | 0.00 | 0.00 | 0.00 | 84 | 1012.9 |
| 20260904033740 | 80 | 140 | 2.6 | 4.3 | 0.00 | 0.00 | 0.00 | 84 | 1012.9 |
| 20260904033240 | 80 | 140 | 2.6 | 4.3 | 0.00 | 0.00 | 0.00 | 84 | 1012.8 |
| 20260904032739 | 80 | 141 | 2.6 | 4.3 | 0.00 | 0.00 | 0.00 | 84 | 1012.9 |
| 20260904032239 | 80 | 142 | 2.6 | 5.2 | 0.00 | 0.00 | 0.00 | 85 | 1012.8 |
| 20260904031740 | 80 | 142 | 2.6 | 5.2 | 0.00 | 0.00 | 0.00 | 85 | 1012.7 |
| 20260904031240 | 80 | 141 | 2.6 | 4.3 | 0.00 | 0.00 | 0.00 | 85 | 1012.8 |
| 20260904030740 | 80 | 142 | 2.6 | 4.3 | 0.00 | 0.00 | 0.00 | 84 | 1012.8 |
| 20260904025740 | 80 | 144 | 1.7 | 5.2 | 0.00 | 0.00 | 0.00 | 84 | 1012.6 |
| 20260904025239 | 80 | 139 | 1.7 | 4.3 | 0.00 | 0.00 | 0.00 | 84 | 1012.5 |
| 20260904024739 | 80 | 140 | 1.7 | 4.3 | 0.00 | 0.00 | 0.00 | 84 | 1012.4 |
| 20260904024240 | 81 | 145 | 1.7 | 4.3 | 0.00 | 0.00 | 0.00 | 83 | 1012.3 |
| 20260904023740 | 81 | 148 | 1.7 | 3.5 | 0.00 | 0.00 | 0.00 | 83 | 1012.3 |
| 20260904022740 | 81 | 152 | 1.7 | 5.2 | 0.00 | 0.00 | 0.00 | 83 | 1012.1 |
| 20260904022240 | 81 | 150 | 2.6 | 4.3 | 0.00 | 0.00 | 0.00 | 83 | 1012.1 |
| 20260904021740 | 81 | 145 | 2.6 | 4.3 | 0.00 | 0.00 | 0.00 | 83 | 1012.0 |
| 20260904021239 | 81 | 139 | 1.7 | 4.3 | 0.00 | 0.00 | 0.00 | 83 | 1012.0 |
| 20260904020740 | 81 | 137 | 2.6 | 4.3 | 0.00 | 0.00 | 0.00 | 83 | 1012.0 |
| 20260904015740 | 81 | 142 | 2.6 | 5.2 | 0.00 | 0.00 | 0.00 | 82 | 1011.7 |
| 20260904015240 | 81 | 141 | 2.6 | 6.1 | 0.00 | 0.00 | 0.00 | 82 | 1011.6 |
| 20260904014739 | 81 | 140 | 2.6 | 6.1 | 0.00 | 0.00 | 0.00 | 81 | 1011.5 |
| 20260904014239 | 81 | 136 | 2.6 | 4.3 | 0.00 | 0.00 | 0.00 | 81 | 1011.5 |
| 20260904013740 | 82 | 137 | 2.6 | 4.3 | 0.00 | 0.00 | 0.00 | 80 | 1011.5 |
| 20260904013240 | 82 | 144 | 2.6 | 5.2 | 0.00 | 0.00 | 0.00 | 80 | 1011.4 |
| 20260904012739 | 82 | 147 | 2.6 | 5.2 | 0.00 | 0.00 | 0.00 | 80 | 1011.4 |
| 20260904012239 | 82 | 149 | 2.6 | 4.3 | 0.00 | 0.00 | 0.00 | 80 | 1011.1 |
| 20260904011740 | 82 | 149 | 2.6 | 4.3 | 0.00 | 0.00 | 0.00 | 80 | 1011.1 |
| 20260904011241 | 82 | 148 | 2.6 | 5.2 | 0.00 | 0.00 | 0.00 | 79 | 1011.1 |
| 20260904010739 | 82 | 150 | 2.6 | 5.2 | 0.00 | 0.00 | 0.00 | 79 | 1011.0 |
| 20260904010241 | 82 | 154 | 2.6 | 5.2 | 0.00 | 0.00 | 0.00 | 79 | 1010.9 |
| 20260904005740 | 82 | 152 | 2.6 | 6.1 | 0.00 | 0.00 | 0.00 | 78 | 1011.0 |
| 20260904004739 | 82 | 149 | 3.5 | 7.8 | 0.00 | 0.00 | 0.00 | 77 | 1011.1 |
| 20260904004240 | 83 | 153 | 3.5 | 7.8 | 0.00 | 0.00 | 0.00 | 77 | 1011.1 |
| 20260904003741 | 83 | 154 | 2.6 | 5.2 | 0.00 | 0.00 | 0.00 | 77 | 1011.1 |
| 20260904003239 | 83 | 153 | 2.6 | 7.0 | 0.00 | 0.00 | 0.00 | 76 | 1011.2 |
| 20260904002740 | 84 | 151 | 3.5 | 7.0 | 0.00 | 0.00 | 0.00 | 75 | 1011.3 |
| 20260904002241 | 84 | 152 | 4.3 | 7.8 | 0.00 | 0.00 | 0.00 | 74 | 1011.2 |
| 20260904001741 | 84 | 153 | 4.3 | 8.7 | 0.00 | 0.00 | 0.00 | 74 | 1011.2 |
| 20260904001240 | 84 | 155 | 4.3 | 8.7 | 0.00 | 0.00 | 0.00 | 73 | 1011.1 |
| 20260904000241 | 85 | 153 | 4.3 | 7.8 | 0.00 | 0.00 | 0.00 | 71 | 1011.1 |
| 20260903235740 | 85 | 151 | 5.2 | 8.7 | 0.00 | 0.00 | 0.00 | 71 | 1011.1 |
| 20260903235239 | 85 | 151 | 5.2 | 8.7 | 0.00 | 0.00 | 0.00 | 70 | 1011.0 |
| 20260903234740 | 86 | 152 | 4.3 | 7.8 | 0.00 | 0.00 | 0.00 | 69 | 1011.0 |
| 20260903234240 | 86 | 154 | 4.3 | 8.7 | 0.00 | 0.00 | 0.00 | 68 | 1011.1 |
| 20260903233740 | 86 | 152 | 5.2 | 8.7 | 0.00 | 0.00 | 0.00 | 67 | 1011.0 |
| 20260903233241 | 86 | 152 | 5.2 | 9.6 | 0.00 | 0.00 | 0.00 | 68 | 1011.0 |
| 20260903232242 | 86 | 152 | 6.1 | 8.7 | 0.00 | 0.00 | 0.00 | 66 | 1010.9 |
| 20260903231740 | 87 | 149 | 5.2 | 8.7 | 0.00 | 0.00 | 0.00 | 64 | 1011.0 |
| 20260903231240 | 86 | 145 | 5.2 | 7.8 | 0.00 | 0.00 | 0.00 | 65 | 1010.8 |
| 20260903230739 | 87 | 142 | 4.3 | 7.0 | 0.00 | 0.00 | 0.00 | 64 | 1010.8 |
| 20260903225741 | 88 | 141 | 4.3 | 7.8 | 0.00 | 0.00 | 0.00 | 63 | 1010.8 |
| 20260903225239 | 88 | 139 | 5.2 | 8.7 | 0.00 | 0.00 | 0.00 | 63 | 1010.8 |
| 20260903224740 | 88 | 145 | 5.2 | 8.7 | 0.00 | 0.00 | 0.00 | 62 | 1010.7 |
| 20260903224240 | 87 | 151 | 5.2 | 8.7 | 0.00 | 0.00 | 0.00 | 63 | 1010.7 |
| 20260903223740 | 87 | 146 | 5.2 | 7.8 | 0.00 | 0.00 | 0.00 | 63 | 1010.7 |
| 20260903223240 | 87 | 144 | 4.3 | 7.8 | 0.00 | 0.00 | 0.00 | 64 | 1010.7 |
| 20260903222740 | 87 | 148 | 4.3 | 7.8 | 0.00 | 0.00 | 0.00 | 65 | 1010.7 |
| 20260903222240 | 86 | 150 | 4.3 | 7.8 | 0.00 | 0.00 | 0.00 | 66 | 1010.8 |
| 20260903221740 | 86 | 145 | 4.3 | 7.8 | 0.00 | 0.00 | 0.00 | 67 | 1010.7 |
| 20260903221240 | 86 | 142 | 5.2 | 8.7 | 0.00 | 0.00 | 0.00 | 68 | 1010.8 |
| 20260903220740 | 86 | 146 | 4.3 | 8.7 | 0.00 | 0.00 | 0.00 | 68 | 1010.8 |
| 20260903220241 | 87 | 150 | 4.3 | 8.7 | 0.00 | 0.00 | 0.00 | 67 | 1010.8 |
| 20260903215739 | 87 | 145 | 4.3 | 8.7 | 0.00 | 0.00 | 0.00 | 67 | 1010.8 |
| 20260903215240 | 88 | 144 | 4.3 | 8.7 | 0.00 | 0.00 | 0.00 | 66 | 1010.7 |
| 20260903214740 | 88 | 150 | 4.3 | 8.7 | 0.00 | 0.00 | 0.00 | 66 | 1010.8 |
| 20260903214241 | 89 | 152 | 3.5 | 7.0 | 0.00 | 0.00 | 0.00 | 64 | 1010.7 |
| 20260903213740 | 90 | 152 | 3.5 | 7.0 | 0.00 | 0.00 | 0.00 | 63 | 1010.7 |
| 20260903213239 | 90 | 151 | 4.3 | 8.7 | 0.00 | 0.00 | 0.00 | 62 | 1010.6 |
| 20260903212742 | 90 | 151 | 4.3 | 8.7 | 0.00 | 0.00 | 0.00 | 61 | 1010.8 |
| 20260903212239 | 90 | 147 | 4.3 | 8.7 | 0.00 | 0.00 | 0.00 | 61 | 1010.8 |
| 20260903210740 | 91 | 156 | 3.5 | 7.0 | 0.00 | 0.00 | 0.00 | 60 | 1010.8 |
| 20260903210240 | 91 | 159 | 3.5 | 7.8 | 0.00 | 0.00 | 0.00 | 60 | 1010.9 |
| 20260903205740 | 90 | 160 | 3.5 | 7.8 | 0.00 | 0.00 | 0.00 | 61 | 1010.8 |
| 20260903205240 | 90 | 161 | 3.5 | 7.8 | 0.00 | 0.00 | 0.00 | 62 | 1011.0 |
| 20260903204741 | 90 | 165 | 3.5 | 7.8 | 0.00 | 0.00 | 0.00 | 62 | 1011.0 |
| 20260903203740 | 90 | 160 | 3.5 | 8.7 | 0.00 | 0.00 | 0.00 | 62 | 1011.3 |
| 20260903203240 | 90 | 156 | 4.3 | 8.7 | 0.00 | 0.00 | 0.00 | 63 | 1011.3 |
| 20260903202741 | 90 | 160 | 3.5 | 9.6 | 0.00 | 0.00 | 0.00 | 63 | 1011.4 |
| 20260903202241 | 90 | 169 | 3.5 | 9.6 | 0.00 | 0.00 | 0.00 | 63 | 1011.5 |
| 20260903201740 | 90 | 162 | 3.5 | 7.8 | 0.00 | 0.00 | 0.00 | 63 | 1011.5 |
| 20260903201241 | 90 | 159 | 3.5 | 7.8 | 0.00 | 0.00 | 0.00 | 63 | 1011.6 |
| 20260903200740 | 90 | 164 | 3.5 | 7.8 | 0.00 | 0.00 | 0.00 | 63 | 1011.6 |
| 20260903200240 | 91 | 166 | 3.5 | 6.1 | 0.00 | 0.00 | 0.00 | 62 | 1011.7 |
| 20260903195740 | 91 | 168 | 3.5 | 8.7 | 0.00 | 0.00 | 0.00 | 62 | 1011.7 |
| 20260903195241 | 90 | 164 | 4.3 | 8.7 | 0.00 | 0.00 | 0.00 | 64 | 1011.7 |
| 20260903194740 | 90 | 157 | 4.3 | 8.7 | 0.00 | 0.00 | 0.00 | 64 | 1011.8 |
| 20260903194240 | 90 | 155 | 3.5 | 7.8 | 0.00 | 0.00 | 0.00 | 65 | 1011.9 |
| 20260903193741 | 89 | 153 | 4.3 | 7.8 | 0.00 | 0.00 | 0.00 | 66 | 1012.0 |
| 20260903193240 | 89 | 154 | 3.5 | 7.8 | 0.00 | 0.00 | 0.00 | 67 | 1012.0 |
| 20260903192740 | 89 | 149 | 4.3 | 7.8 | 0.00 | 0.00 | 0.00 | 68 | 1012.2 |
| 20260903192242 | 88 | 148 | 4.3 | 7.8 | 0.00 | 0.00 | 0.00 | 70 | 1012.2 |
| 20260903191740 | 88 | 155 | 4.3 | 7.8 | 0.00 | 0.00 | 0.00 | 69 | 1012.4 |
| 20260903191240 | 88 | 156 | 4.3 | 8.7 | 0.00 | 0.00 | 0.00 | 71 | 1012.5 |
| 20260903190740 | 87 | 152 | 4.3 | 9.6 | 0.00 | 0.00 | 0.00 | 72 | 1012.7 |
| 20260903190240 | 86 | 151 | 4.3 | 9.6 | 0.00 | 0.00 | 0.00 | 74 | 1012.9 |
| 20260903185740 | 86 | 151 | 4.3 | 9.6 | 0.00 | 0.00 | 0.00 | 74 | 1012.9 |
| 20260903184240 | 84 | 148 | 4.3 | 7.8 | 0.00 | 0.00 | 0.00 | 77 | 1013.3 |
| 20260903183740 | 84 | 150 | 4.3 | 8.7 | 0.00 | 0.00 | 0.00 | 78 | 1013.3 |
| 20260903183240 | 84 | 150 | 5.2 | 8.7 | 0.00 | 0.00 | 0.00 | 79 | 1013.3 |
| 20260903182740 | 84 | 153 | 5.2 | 9.6 | 0.00 | 0.00 | 0.00 | 79 | 1013.5 |
| 20260903182241 | 84 | 150 | 5.2 | 9.6 | 0.00 | 0.00 | 0.00 | 78 | 1013.5 |
| 20260903181241 | 85 | 155 | 4.3 | 7.8 | 0.00 | 0.00 | 0.00 | 77 | 1013.6 |
| 20260903180741 | 84 | 157 | 5.2 | 8.7 | 0.00 | 0.00 | 0.00 | 78 | 1013.7 |
| 20260903180240 | 84 | 153 | 5.2 | 8.7 | 0.00 | 0.00 | 0.00 | 78 | 1013.8 |
| 20260903175740 | 85 | 147 | 5.2 | 9.6 | 0.00 | 0.00 | 0.00 | 77 | 1013.9 |
| 20260903175242 | 85 | 150 | 6.1 | 9.6 | 0.00 | 0.00 | 0.00 | 77 | 1013.9 |
| 20260903174741 | 86 | 156 | 6.1 | 10.4 | 0.00 | 0.00 | 0.00 | 77 | 1014.0 |
| 20260903174240 | 86 | 153 | 5.2 | 10.4 | 0.00 | 0.00 | 0.00 | 76 | 1014.0 |
| 20260903173740 | 85 | 143 | 4.3 | 7.8 | 0.00 | 0.00 | 0.00 | 78 | 1014.1 |
| 20260903173240 | 84 | 138 | 4.3 | 7.0 | 0.00 | 0.00 | 0.00 | 80 | 1014.3 |
| 20260903172240 | 83 | 143 | 4.3 | 7.8 | 0.00 | 0.00 | 0.00 | 81 | 1014.4 |
| 20260903171740 | 83 | 143 | 4.3 | 7.8 | 0.00 | 0.00 | 0.00 | 81 | 1014.4 |
| 20260903171240 | 83 | 146 | 4.3 | 7.8 | 0.00 | 0.00 | 0.00 | 81 | 1014.5 |
| 20260903170740 | 83 | 148 | 4.3 | 7.8 | 0.00 | 0.00 | 0.00 | 80 | 1014.5 |
| 20260903170241 | 83 | 142 | 4.3 | 10.4 | 0.00 | 0.00 | 0.00 | 80 | 1014.5 |
| 20260903165740 | 83 | 144 | 4.3 | 10.4 | 0.00 | 0.00 | 0.00 | 79 | 1014.4 |
| 20260903165241 | 83 | 151 | 4.3 | 8.7 | 0.00 | 0.00 | 0.00 | 80 | 1014.4 |
| 20260903164240 | 83 | 152 | 4.3 | 8.7 | 0.00 | 0.00 | 0.00 | 79 | 1014.4 |
| 20260903163741 | 83 | 151 | 4.3 | 8.7 | 0.00 | 0.00 | 0.00 | 79 | 1014.4 |
| 20260903162741 | 83 | 150 | 3.5 | 8.7 | 0.00 | 0.00 | 0.00 | 79 | 1014.4 |
| 20260903162240 | 83 | 147 | 3.5 | 7.8 | 0.00 | 0.00 | 0.00 | 80 | 1014.3 |
| 20260903161240 | 83 | 147 | 3.5 | 7.0 | 0.00 | 0.00 | 0.00 | 80 | 1014.2 |
| 20260903160740 | 83 | 148 | 3.5 | 7.0 | 0.00 | 0.00 | 0.00 | 81 | 1014.2 |
| 20260903160241 | 82 | 151 | 3.5 | 7.0 | 0.00 | 0.00 | 0.00 | 81 | 1014.1 |
| 20260903155740 | 83 | 156 | 2.6 | 7.0 | 0.00 | 0.00 | 0.00 | 81 | 1014.0 |
| 20260903155240 | 83 | 152 | 3.5 | 7.8 | 0.00 | 0.00 | 0.00 | 81 | 1014.0 |
| 20260903154740 | 83 | 151 | 3.5 | 7.8 | 0.00 | 0.00 | 0.00 | 81 | 1013.9 |
| 20260903154241 | 82 | 154 | 3.5 | 7.0 | 0.00 | 0.00 | 0.00 | 81 | 1014.0 |
| 20260903153241 | 82 | 152 | 3.5 | 7.0 | 0.00 | 0.00 | 0.00 | 82 | 1013.8 |
| 20260903152740 | 82 | 149 | 3.5 | 7.0 | 0.00 | 0.00 | 0.00 | 82 | 1013.7 |
| 20260903152241 | 82 | 148 | 3.5 | 7.8 | 0.00 | 0.00 | 0.00 | 82 | 1013.7 |
| 20260903151740 | 82 | 150 | 3.5 | 7.8 | 0.00 | 0.00 | 0.00 | 82 | 1013.8 |
| 20260903151240 | 82 | 151 | 3.5 | 7.0 | 0.00 | 0.00 | 0.00 | 83 | 1013.7 |
| 20260903150740 | 82 | 152 | 3.5 | 7.8 | 0.00 | 0.00 | 0.00 | 83 | 1013.7 |
| 20260903150241 | 82 | 151 | 3.5 | 7.8 | 0.00 | 0.00 | 0.00 | 83 | 1013.6 |
| 20260903145741 | 82 | 151 | 2.6 | 6.1 | 0.00 | 0.00 | 0.00 | 83 | 1013.5 |
| 20260903144740 | 81 | 148 | 1.7 | 6.1 | 0.00 | 0.00 | 0.00 | 84 | 1013.5 |
| 20260903144240 | 81 | 153 | 1.7 | 4.3 | 0.00 | 0.00 | 0.00 | 83 | 1013.6 |
| 20260903143740 | 81 | 153 | 2.6 | 5.2 | 0.00 | 0.00 | 0.00 | 83 | 1013.6 |
| 20260903143241 | 81 | 154 | 2.6 | 5.2 | 0.00 | 0.00 | 0.00 | 83 | 1013.5 |
| 20260903142740 | 81 | 152 | 2.6 | 6.1 | 0.00 | 0.00 | 0.00 | 83 | 1013.4 |
| 20260903142241 | 81 | 150 | 2.6 | 6.1 | 0.00 | 0.00 | 0.00 | 83 | 1013.3 |
| 20260903141740 | 81 | 147 | 2.6 | 4.3 | 0.00 | 0.00 | 0.00 | 83 | 1013.3 |
| 20260903141240 | 81 | 145 | 2.6 | 6.1 | 0.00 | 0.00 | 0.00 | 83 | 1013.3 |
| 20260903140241 | 81 | 143 | 1.7 | 4.3 | 0.00 | 0.00 | 0.00 | 83 | 1013.4 |
| 20260903135740 | 81 | 149 | 1.7 | 3.5 | 0.00 | 0.00 | 0.00 | 83 | 1013.4 |
| 20260903135241 | 81 | 156 | 1.7 | 3.5 | 0.00 | 0.00 | 0.00 | 83 | 1013.4 |
| 20260903134240 | 81 | 144 | 2.6 | 4.3 | 0.00 | 0.00 | 0.00 | 83 | 1013.3 |
| 20260903133241 | 81 | 149 | 1.7 | 4.3 | 0.00 | 0.00 | 0.00 | 84 | 1013.3 |
| 20260903132240 | 80 | 145 | 1.7 | 4.3 | 0.00 | 0.00 | 0.00 | 84 | 1013.3 |
| 20260903131741 | 80 | 150 | 1.7 | 5.2 | 0.00 | 0.00 | 0.00 | 84 | 1013.2 |
| 20260903131240 | 80 | 155 | 1.7 | 5.2 | 0.00 | 0.00 | 0.00 | 84 | 1013.1 |
| 20260903130741 | 80 | 159 | 1.7 | 3.5 | 0.00 | 0.00 | 0.00 | 84 | 1013.1 |
| 20260903130241 | 80 | 159 | 1.7 | 3.5 | 0.00 | 0.00 | 0.00 | 84 | 1013.0 |
| 20260903125240 | 79 | 150 | 1.7 | 3.5 | 0.00 | 0.00 | 0.00 | 85 | 1013.1 |
| 20260903124742 | 79 | 149 | 0.9 | 3.5 | 0.00 | 0.00 | 0.00 | 85 | 1013.1 |
| 20260903124241 | 79 | 148 | 1.7 | 2.6 | 0.00 | 0.00 | 0.00 | 84 | 1013.1 |
| 20260903123741 | 79 | 145 | 1.7 | 3.5 | 0.00 | 0.00 | 0.00 | 84 | 1013.0 |
| 20260903123241 | 79 | 146 | 1.7 | 3.5 | 0.00 | 0.00 | 0.00 | 84 | 1012.9 |
| 20260903122740 | 79 | 149 | 1.7 | 3.5 | 0.00 | 0.00 | 0.00 | 84 | 1012.8 |
| 20260903122241 | 79 | 151 | 1.7 | 3.5 | 0.00 | 0.00 | 0.00 | 84 | 1012.8 |
| 20260903121742 | 79 | 155 | 1.7 | 3.5 | 0.00 | 0.00 | 0.00 | 83 | 1012.7 |
| 20260903121240 | 79 | 158 | 0.9 | 3.5 | 0.00 | 0.00 | 0.00 | 83 | 1012.7 |
| 20260903120740 | 79 | 161 | 0.9 | 3.5 | 0.00 | 0.00 | 0.00 | 83 | 1012.7 |
| 20260903120240 | 79 | 159 | 1.7 | 3.5 | 0.00 | 0.00 | 0.00 | 83 | 1012.6 |
| 20260903115740 | 79 | 163 | 1.7 | 3.5 | 0.00 | 0.00 | 0.00 | 83 | 1012.7 |
| 20260903115241 | 79 | 163 | 1.7 | 3.5 | 0.00 | 0.00 | 0.00 | 83 | 1012.7 |
| 20260903114741 | 79 | 162 | 0.9 | 3.5 | 0.00 | 0.00 | 0.00 | 83 | 1012.6 |
| 20260903114240 | 79 | 162 | 1.7 | 4.3 | 0.00 | 0.00 | 0.00 | 82 | 1012.6 |
| 20260903113740 | 79 | 156 | 1.7 | 4.3 | 0.00 | 0.00 | 0.00 | 82 | 1012.5 |
| 20260903112740 | 79 | 166 | 0.9 | 3.5 | 0.00 | 0.00 | 0.00 | 82 | 1012.4 |
| 20260903112241 | 79 | 165 | 1.7 | 5.2 | 0.00 | 0.00 | 0.00 | 82 | 1012.3 |
| 20260903111741 | 79 | 162 | 1.7 | 5.2 | 0.00 | 0.00 | 0.00 | 82 | 1012.3 |
| 20260903111240 | 79 | 162 | 1.7 | 4.3 | 0.00 | 0.00 | 0.00 | 82 | 1012.3 |
| 20260903110741 | 79 | 162 | 1.7 | 4.3 | 0.00 | 0.00 | 0.00 | 82 | 1012.2 |
| 20260903110241 | 79 | 160 | 1.7 | 7.0 | 0.00 | 0.00 | 0.00 | 81 | 1012.2 |
| 20260903105740 | 79 | 163 | 1.7 | 7.0 | 0.00 | 0.00 | 0.00 | 81 | 1012.2 |
| 20260903105241 | 79 | 169 | 1.7 | 3.5 | 0.00 | 0.00 | 0.00 | 81 | 1012.2 |
| 20260903104741 | 79 | 163 | 1.7 | 4.3 | 0.00 | 0.00 | 0.00 | 81 | 1012.3 |
| 20260903103741 | 79 | 157 | 1.7 | 4.3 | 0.00 | 0.00 | 0.00 | 81 | 1012.3 |
| 20260903103240 | 79 | 153 | 1.7 | 4.3 | 0.00 | 0.00 | 0.00 | 81 | 1012.3 |
| 20260903102240 | 79 | 148 | 1.7 | 3.5 | 0.00 | 0.00 | 0.00 | 81 | 1012.4 |
| 20260903101742 | 79 | 149 | 1.7 | 3.5 | 0.00 | 0.00 | 0.00 | 81 | 1012.3 |
| 20260903100741 | 80 | 158 | 1.7 | 4.3 | 0.00 | 0.00 | 0.00 | 80 | 1012.3 |
| 20260903095742 | 80 | 170 | 0.9 | 3.5 | 0.00 | 0.00 | 0.00 | 80 | 1012.2 |
| 20260903095242 | 79 | 175 | 0.9 | 2.6 | 0.00 | 0.00 | 0.00 | 80 | 1012.2 |
| 20260903094741 | 79 | 174 | 0.9 | 3.5 | 0.00 | 0.00 | 0.00 | 80 | 1012.2 |
| 20260903094241 | 79 | 173 | 1.7 | 3.5 | 0.00 | 0.00 | 0.00 | 80 | 1012.2 |
| 20260903093242 | 79 | 173 | 1.7 | 3.5 | 0.00 | 0.00 | 0.00 | 80 | 1012.2 |
| 20260903092740 | 79 | 171 | 0.9 | 4.3 | 0.00 | 0.00 | 0.00 | 80 | 1012.2 |
| 20260903091740 | 79 | 169 | 0.9 | 4.3 | 0.00 | 0.00 | 0.00 | 80 | 1012.2 |
| 20260903091241 | 79 | 167 | 0.9 | 4.3 | 0.00 | 0.00 | 0.00 | 79 | 1012.3 |
| 20260903090741 | 79 | 158 | 0.9 | 3.5 | 0.00 | 0.00 | 0.00 | 79 | 1012.5 |
| 20260903090241 | 79 | 153 | 1.7 | 3.5 | 0.00 | 0.00 | 0.00 | 79 | 1012.5 |
| 20260903085241 | 79 | 155 | 1.7 | 3.5 | 0.00 | 0.00 | 0.00 | 79 | 1012.5 |
| 20260903084740 | 80 | 163 | 0.9 | 3.5 | 0.00 | 0.00 | 0.00 | 79 | 1012.4 |
| 20260903083740 | 79 | 173 | 0.9 | 2.6 | 0.00 | 0.00 | 0.00 | 79 | 1012.4 |
| 20260903083241 | 79 | 178 | 0.9 | 2.6 | 0.00 | 0.00 | 0.00 | 79 | 1012.4 |
| 20260903082741 | 79 | 179 | 0.9 | 1.7 | 0.00 | 0.00 | 0.00 | 79 | 1012.4 |
| 20260903082241 | 80 | 172 | 0.9 | 2.6 | 0.00 | 0.00 | 0.00 | 79 | 1012.5 |
| 20260903081740 | 80 | 164 | 0.9 | 2.6 | 0.00 | 0.00 | 0.00 | 79 | 1012.5 |
| 20260903080741 | 80 | 166 | 0.9 | 4.3 | 0.00 | 0.00 | 0.00 | 79 | 1012.6 |
| 20260903080241 | 79 | 166 | 0.9 | 4.3 | 0.00 | 0.00 | 0.00 | 79 | 1012.6 |
| 20260903075741 | 79 | 176 | 0.9 | 2.6 | 0.00 | 0.00 | 0.00 | 79 | 1012.6 |
| 20260903075241 | 79 | 171 | 0.9 | 3.5 | 0.00 | 0.00 | 0.00 | 79 | 1012.6 |
| 20260903074741 | 79 | 177 | 0.9 | 3.5 | 0.00 | 0.00 | 0.00 | 79 | 1012.6 |
| 20260903074242 | 79 | 189 | 0.9 | 1.7 | 0.00 | 0.00 | 0.00 | 79 | 1012.6 |
| 20260903073242 | 80 | 162 | 0.9 | 2.6 | 0.00 | 0.00 | 0.00 | 79 | 1012.6 |
| 20260903072740 | 80 | 163 | 0.9 | 1.7 | 0.00 | 0.00 | 0.00 | 79 | 1012.6 |
| 20260903072241 | 80 | 179 | 0.9 | 1.7 | 0.00 | 0.00 | 0.00 | 78 | 1012.5 |
| 20260903071741 | 80 | 176 | 0.9 | 1.7 | 0.00 | 0.00 | 0.00 | 78 | 1012.6 |
| 20260903071241 | 80 | 170 | 0.9 | 1.7 | 0.00 | 0.00 | 0.00 | 78 | 1012.5 |
| 20260903070740 | 80 | 173 | 0.9 | 2.6 | 0.00 | 0.00 | 0.00 | 78 | 1012.5 |
| 20260903070241 | 80 | 177 | 0.9 | 3.5 | 0.00 | 0.00 | 0.00 | 78 | 1012.5 |
| 20260903065741 | 80 | 174 | 0.9 | 3.5 | 0.00 | 0.00 | 0.00 | 77 | 1012.5 |
| 20260903064741 | 80 | 166 | 0.9 | 1.7 | 0.00 | 0.00 | 0.00 | 77 | 1012.5 |
| 20260903064241 | 80 | 169 | 0.9 | 1.7 | 0.00 | 0.00 | 0.00 | 77 | 1012.6 |
| 20260903063740 | 80 | 176 | 0.9 | 2.6 | 0.00 | 0.00 | 0.00 | 76 | 1012.6 |
| 20260903062740 | 81 | 175 | 0.9 | 2.6 | 0.00 | 0.00 | 0.00 | 76 | 1012.7 |
| 20260903062241 | 81 | 171 | 0.9 | 3.5 | 0.00 | 0.00 | 0.00 | 76 | 1012.7 |
| 20260903061741 | 81 | 172 | 0.9 | 3.5 | 0.00 | 0.00 | 0.00 | 75 | 1012.7 |
| 20260903061241 | 81 | 176 | 0.9 | 1.7 | 0.00 | 0.00 | 0.00 | 75 | 1012.7 |
| 20260903060741 | 81 | 176 | 0.9 | 2.6 | 0.00 | 0.00 | 0.00 | 75 | 1012.7 |
| 20260903060241 | 81 | 175 | 0.9 | 2.6 | 0.00 | 0.00 | 0.00 | 75 | 1012.8 |
| 20260903055742 | 81 | 0 | 0.0 | 1.7 | 0.00 | 0.00 | 0.00 | 75 | 1012.8 |
| 20260903055240 | 81 | 0 | 0.0 | 0.9 | 0.00 | 0.00 | 0.00 | 75 | 1012.8 |
| 20260903054741 | 81 | 163 | 0.9 | 1.7 | 0.00 | 0.00 | 0.00 | 75 | 1012.8 |
| 20260903054241 | 81 | 162 | 0.9 | 1.7 | 0.00 | 0.00 | 0.00 | 75 | 1012.8 |
| 20260903053741 | 81 | 161 | 0.9 | 1.7 | 0.00 | 0.00 | 0.00 | 75 | 1012.8 |
| 20260903053241 | 81 | 158 | 0.9 | 2.6 | 0.00 | 0.00 | 0.00 | 74 | 1012.9 |
| 20260903052241 | 82 | 155 | 0.9 | 3.5 | 0.00 | 0.00 | 0.00 | 74 | 1012.8 |
| 20260903051741 | 81 | 159 | 0.9 | 2.6 | 0.00 | 0.00 | 0.00 | 75 | 1012.7 |
| 20260903051241 | 81 | 0 | 0.0 | 2.6 | 0.00 | 0.00 | 0.00 | 76 | 1012.8 |
| 20260903050742 | 81 | 0 | 0.0 | 1.7 | 0.00 | 0.00 | 0.00 | 76 | 1012.8 |
| 20260903050241 | 81 | 152 | 0.9 | 1.7 | 0.00 | 0.00 | 0.00 | 75 | 1012.7 |
| 20260903045241 | 82 | 152 | 0.9 | 1.7 | 0.00 | 0.00 | 0.00 | 75 | 1012.8 |
| 20260903044741 | 82 | 152 | 0.9 | 1.7 | 0.00 | 0.00 | 0.00 | 74 | 1012.8 |
| 20260903044241 | 82 | 152 | 0.9 | 1.7 | 0.00 | 0.00 | 0.00 | 74 | 1012.8 |
| 20260903043741 | 82 | 152 | 0.9 | 1.7 | 0.00 | 0.00 | 0.00 | 74 | 1012.9 |
| 20260903043241 | 82 | 146 | 1.7 | 3.5 | 0.00 | 0.00 | 0.00 | 74 | 1013.0 |
| 20260903042742 | 82 | 140 | 1.7 | 3.5 | 0.00 | 0.00 | 0.00 | 73 | 1013.1 |
| 20260903041741 | 82 | 138 | 1.7 | 3.5 | 0.00 | 0.00 | 0.00 | 73 | 1013.2 |
| 20260903040241 | 83 | 152 | 2.6 | 5.2 | 0.00 | 0.00 | 0.00 | 73 | 1013.3 |
| 20260903035741 | 83 | 151 | 2.6 | 5.2 | 0.00 | 0.00 | 0.00 | 72 | 1013.2 |
| 20260903035241 | 83 | 148 | 2.6 | 5.2 | 0.00 | 0.00 | 0.00 | 71 | 1013.2 |